sat.trackr.live / text

‹ back to catalog

STARLINK-35051

NORAD 65380 · 2025-191B

PAYLOAD ACTIVE UNKNOWN

§ Identity

Operator
Country
US
Launch date
2025-08-30
Launch site
AFWTR
Launch vehicle
Mass (kg)
RCS (m²)

Purposes: comms

External: N2YO · Heavens-Above · Gunter

§ Orbital elements

Epoch: 2026-09-20T13:04:05.207808Z

Period
93.91 min
Inclination
97.2847°
Eccentricity
0.0002097
Mean motion
15.33457893 rev/d
Perigee alt
464.1 km
Apogee alt
466.9 km
Semi-major
6,843.6 km
B*
3.5146e-4
RAAN
129.5452°
Arg perigee
85.3752°
Mean anomaly
274.7730°
Rev number
5,965

§ Raw data

STARLINK-350511 65380U 25191B   26263.54450472  .00011293  00000+0  35146-3 0  99972 65380  97.2847 129.5452 0002097  85.3752 274.7730 15.33457893 59650

JSON: /api/v1/satellites/65380 · /tle

For live sub-satellite position, see the globe view (requires WebGL).

§ Visibility from observer

Set your observer location to see the next 7 days of passes ≥ 10°. The values pass through the URL so the page stays shareable.

No JS? Fill the form by hand. The geolocation button needs JavaScript.